This is the latest recevied weather packets stored in our database for station/object SP4MAZ-13. If no packets are shown the sender has not sent any weather packets the latest 10 day(s).
| Time | Temp. | Humidity | Pressure | Rain* | Wind** | Luminosity | Snow |
|---|---|---|---|---|---|---|---|
| 1778055909 | 15.56° C | 68% | 2147.4 hPa | - | - | - | - |
| 1778055606 | 14.44° C | 73% | 2147.4 hPa | - | - | - | - |
| 1778055304 | 15° C | 69% | 2147.4 hPa | - | - | - | - |
| 1778055000 | 13.89° C | 75% | 2147.4 hPa | - | - | - | - |
| 1778054697 | 13.33° C | 82% | 2147.4 hPa | - | - | - | - |
| 1778054395 | 13.33° C | 82% | 2147.4 hPa | - | - | - | - |
| 1778053784 | 13.89° C | 74% | 2147.4 hPa | - | - | - | - |
| 1778053483 | 13.89° C | 74% | 2147.4 hPa | - | - | - | - |
| 1778053179 | 13.89° C | 75% | 2147.4 hPa | - | - | - | - |
| 1778052875 | 13.89° C | 73% | 2147.4 hPa | - | - | - | - |
| 1778052573 | 13.89° C | 73% | 2147.4 hPa | - | - | - | - |
| 1778052272 | 13.89° C | 75% | 2147.4 hPa | - | - | - | - |
| 1778051968 | 13.89° C | 73% | 2147.4 hPa | - | - | - | - |
| 1778051666 | 14.44° C | 71% | 2147.4 hPa | - | - | - | - |
| 1778051362 | 13.33° C | 76% | 2147.4 hPa | - | - | - | - |
| 1778051059 | 13.33° C | 78% | 2147.4 hPa | - | - | - | - |
| 1778050757 | 13.89° C | 71% | 2147.4 hPa | - | - | - | - |
| 1778050452 | 13.33° C | 72% | 2147.4 hPa | - | - | - | - |
| 1778050149 | 13.33° C | 72% | 2147.4 hPa | - | - | - | - |
| 1778049845 | 13.33° C | 73% | 2147.4 hPa | - | - | - | - |
| 1778049543 | 12.78° C | 76% | 2147.4 hPa | - | - | - | - |
| 1778049239 | 12.78° C | 75% | 2147.4 hPa | - | - | - | - |
| 1778048938 | 13.89° C | 68% | 2147.4 hPa | - | - | - | - |
| 1778048634 | 13.89° C | 70% | 2147.4 hPa | - | - | - | - |
| 1778048024 | 12.78° C | 76% | 2147.4 hPa | - | - | - | - |
* Rain since midnight (hover to see other rain measurements)
** Current wind speed in m/s (hover to see current wind gust speed)